User: anonymous   Login
Location: Unspecified
(0.0000°N, 0.0000°E)
Time: 09:20:57
(UTC+00:00)
Language:

Intelsat 501 - Orbit

View from above orbital plane
View from above orbital plane
View from above satellite
View from above satellite

Ground track
Ground track

The orbit data is extracted from the following two-line orbital elements,

1 12474U 81050A   18018.36785400 -.00000116  00000-0  00000+0 0  9991
2 12474  14.9385 350.1560 0007770 266.3443 282.8690  0.98852118107385
Epoch (UTC): 18 January 2018 08:49:42
Eccentricity: 0.0007770
inclination: 14.9385°
perigee height: 36156 km
apogee height: 36222 km
right ascension of ascending node: 350.1560°
argument of perigee: 266.3443°
revolutions per day: 0.98852118
mean anomaly at epoch: 282.8690°
orbit number at epoch: 10738

The dashed part of the orbit path shows where the satellite is in the earth's shadow,  

DLR